DW1274 Weather Reports


time (UTC)temp
C
wind
direction
speed
KPH
gust
KPH
rain 1hr
cm
rain 24hr
cm
rain mn
cm
humidity
%
barometer
mb
20260906134330 28 312 4.8 11.3 0.00 0.33 0.00 82 1011.1
20260906133830 28 311 6.4 12.9 0.00 0.33 0.00 84 1011.2
20260906132830 27 312 6.4 16.1 0.00 0.33 0.00 85 1011.2
20260906131829 27 291 3.2 9.7 0.00 0.33 0.00 85 1011.3
20260906131329 27 312 3.2 9.7 0.00 0.33 0.00 85 1011.3
20260906130829 27 278 3.2 9.7 0.00 0.33 0.00 86 1011.4
20260906125329 26 310 3.2 9.7 0.00 0.33 0.00 87 1011.5
20260906124833 26 0 3.2 11.3 0.00 0.33 0.00 88 1011.4
20260906124328 26 185 3.2 11.3 0.00 0.33 0.00 88 1011.3
20260906123829 26 265 3.2 9.7 0.00 0.33 0.00 90 1011.3
20260906123329 25 0 1.6 6.4 0.00 0.33 0.00 91 1011.3
20260906122829 25 0 1.6 4.8 0.00 0.33 0.00 92 1011.3
20260906122328 25 201 0.0 3.2 0.00 0.33 0.00 93 1011.4
20260906121828 25 0 0.0 3.2 0.00 0.33 0.00 94 1011.4
20260906121328 25 201 0.0 3.2 0.00 0.33 0.00 94 1011.4
20260906120330 24 0 0.0 3.2 0.00 0.33 0.00 94 1011.4
20260906115830 24 0 0.0 3.2 0.00 0.33 0.00 94 1011.3
20260906115330 24 196 0.0 3.2 0.00 0.33 0.00 94 1011.2
20260906114829 24 0 0.0 0.0 0.00 0.33 0.00 94 1011.2
20260906113830 24 0 0.0 0.0 0.00 0.33 0.00 94 1011.1
20260906113330 24 0 0.0 0.0 0.00 0.33 0.00 94 1010.8
20260906112334 24 0 1.6 3.2 0.00 0.33 0.00 94 1010.7
20260906111830 24 199 1.6 3.2 0.00 0.33 0.00 94 1010.6
20260906111330 24 205 0.0 3.2 0.00 0.33 0.00 94 1010.6
20260906110835 24 211 0.0 3.2 0.00 0.33 0.00 94 1010.6
20260906110330 24 0 0.0 3.2 0.00 0.33 0.00 94 1010.6
20260906105830 24 0 0.0 0.0 0.00 0.33 0.00 94 1010.4
20260906105329 24 0 0.0 0.0 0.00 0.33 0.00 94 1010.4
20260906104830 24 0 0.0 1.6 0.00 0.33 0.00 94 1010.4
20260906104329 24 0 0.0 1.6 0.00 0.33 0.00 94 1010.3
20260906103831 24 0 1.6 3.2 0.00 0.33 0.00 94 1010.3
20260906102831 24 0 0.0 3.2 0.00 0.33 0.00 94 1010.1
20260906102330 24 0 0.0 3.2 0.00 0.33 0.00 94 1010.1
20260906101830 24 202 0.0 4.8 0.00 0.33 0.00 94 1010.2
20260906101329 24 194 0.0 4.8 0.00 0.33 0.00 94 1010.2
20260906100331 24 205 0.0 3.2 0.00 0.33 0.00 94 1010.2
20260906095830 24 204 0.0 3.2 0.00 0.33 0.00 94 1010.2
20260906095330 24 0 0.0 3.2 0.00 0.33 0.00 94 1010.2
20260906094829 -17 0 0.0 0.0 0.00 0.33 0.00
20260906094330 24 0 0.0 0.0 0.00 0.33 0.00 93 1010.2
20260906093330 24 0 0.0 3.2 0.00 0.33 0.00 93 1010.2
20260906092830 24 0 0.0 3.2 0.00 0.33 0.00 93 1010.2
20260906092323 24 195 0.0 3.2 0.00 0.33 0.00 93 1010.1
20260906091823 24 0 0.0 0.0 0.00 0.33 0.00 93 1010.2
20260906091323 24 0 0.0 0.0 0.00 0.33 0.00 93 1010.1
20260906090828 24 0 0.0 0.0 0.00 0.33 0.00 93 1010.1
20260906085808 24 0 0.0 3.2 0.00 0.33 0.00 93 1010.0
20260906084808 24 0 0.0 3.2 0.00 0.33 0.00 93 1010.1
20260906084307 24 0 0.0 3.2 0.00 0.33 0.00 93 1010.0
20260906083807 24 0 0.0 1.6 0.00 0.33 0.00 93 1010.0
20260906082308 24 0 0.0 3.2 0.00 0.33 0.00 93 1009.9
20260906081808 24 198 0.0 3.2 0.00 0.33 0.00 93 1009.9
20260906080802 24 0 0.0 0.0 0.00 0.33 0.00 93 1009.8
20260906080303 24 0 0.0 0.0 0.00 0.33 0.00 93 1009.9
20260906075802 24 0 0.0 1.6 0.00 0.33 0.00 93 1009.8
20260906075305 24 0 0.0 1.6 0.00 0.33 0.00 93 1009.9
20260906074805 24 0 0.0 1.6 0.00 0.33 0.00 93 1009.9
20260906074302 24 0 0.0 1.6 0.00 0.33 0.00 93 1009.8
20260906072305 25 0 0.0 1.6 0.00 0.33 0.00 92 1009.9
20260906071802 25 0 0.0 1.6 0.00 0.33 0.00 92 1009.9
20260906071301 25 0 0.0 3.2 0.00 0.33 0.00 92 1009.9
20260906070802 25 0 0.0 3.2 0.00 0.33 0.00 92 1009.8
20260906070302 25 0 0.0 1.6 0.00 0.33 0.00 92 1009.9
20260906065802 25 0 0.0 3.2 0.00 0.33 0.00 92 1010.0
20260906065305 25 0 0.0 3.2 0.00 0.33 0.00 93 1010.0
20260906064802 25 0 0.0 1.6 0.00 0.33 0.00 93 1010.0
20260906064302 25 0 0.0 1.6 0.00 0.33 0.00 93 1010.0
20260906063805 25 0 0.0 0.0 0.00 0.33 0.00 93 1010.1
20260906063302 25 0 0.0 3.2 0.00 0.33 0.00 92 1010.0
20260906062802 25 0 0.0 3.2 0.00 0.33 0.00 92 1010.1
20260906062305 25 204 0.0 3.2 0.00 0.33 0.00 92 1010.2
20260906061802 25 0 0.0 0.0 0.00 0.33 0.00 92 1010.2
20260906061300 25 0 0.0 0.0 0.00 0.33 0.00 92 1010.2
20260906060801 25 0 0.0 0.0 0.00 0.33 0.00 92 1010.3
20260906060303 25 0 0.0 0.0 0.00 0.33 0.00 92 1010.3
20260906055803 25 0 0.0 0.0 0.00 0.33 0.00 92 1010.3
20260906055306 25 0 0.0 0.0 0.00 0.33 0.00 92 1010.4
20260906054802 25 0 0.0 1.6 0.00 0.33 0.00 92 1010.5
20260906054302 25 0 0.0 1.6 0.00 0.33 0.00 92 1010.5
20260906053302 25 0 0.0 0.0 0.00 0.33 0.00 92 1010.5
20260906052805 25 0 0.0 1.6 0.00 0.33 0.00 91 1010.6
20260906051802 25 0 0.0 1.6 0.00 0.33 0.00 91 1010.6
20260906051301 25 0 0.0 0.0 0.00 0.33 0.00 91 1010.6
20260906050800 26 0 0.0 0.0 0.00 0.33 0.00 91 1010.5
20260906050302 26 0 0.0 0.0 0.00 0.33 0.00 91 1010.4
20260906045801 26 0 0.0 3.2 0.00 0.33 0.00 91 1010.4
20260906045300 26 0 1.6 3.2 0.00 0.33 0.00 91 1010.5
20260906044801 26 0 0.0 3.2 0.00 0.33 0.00 91 1010.5
20260906044300 26 0 0.0 3.2 0.00 0.33 0.00 91 1010.5
20260906043800 26 0 0.0 1.6 0.00 0.33 0.00 90 1010.6
20260906043301 26 0 0.0 1.6 0.00 0.33 0.00 90 1010.6
20260906042800 26 0 0.0 3.2 0.00 0.33 0.00 90 1010.6
20260906041800 26 197 1.6 3.2 0.00 0.33 0.00 91 1010.7
20260906041301 26 202 0.0 3.2 0.00 0.33 0.00 91 1010.8
20260906040800 26 0 0.0 3.2 0.00 0.33 0.00 91 1010.8
20260906040301 26 0 0.0 0.0 0.00 0.33 0.00 91 1010.9
20260906035305 26 0 0.0 0.0 0.00 0.33 0.33 91 1011.0
20260906034300 26 0 0.0 0.0 0.00 0.33 0.33 91 1011.2
20260906033800 26 0 0.0 0.0 0.00 0.33 0.33 91 1011.2
20260906033301 26 0 0.0 3.2 0.00 0.33 0.33 91 1011.2
20260906032801 26 0 0.0 3.2 0.00 0.33 0.33 91 1011.2
20260906031800 26 0 0.0 3.2 0.00 0.33 0.33 91 1011.2
20260906030800 26 0 0.0 3.2 0.00 0.33 0.33 91 1011.4
20260906030301 26 195 0.0 3.2 0.00 0.33 0.33 91 1011.5
20260906024801 26 0 0.0 1.6 0.00 0.33 0.33 91 1011.5
20260906023800 26 0 0.0 0.0 0.00 0.33 0.33 91 1011.1
20260906023301 26 0 0.0 0.0 0.00 0.33 0.33 91 1011.2
20260906022801 26 0 0.0 0.0 0.00 0.33 0.33 90 1011.2
20260906022301 26 0 0.0 0.0 0.00 0.33 0.33 90 1011.1
20260906021802 26 0 0.0 0.0 0.00 0.33 0.33 90 1011.2
20260906021301 26 0 0.0 0.0 0.00 0.33 0.33 90 1011.2
20260906020801 26 0 0.0 0.0 0.00 0.33 0.33 90 1011.2
20260906020301 26 0 0.0 1.6 0.00 0.33 0.33 90 1011.1
20260906015802 26 0 0.0 1.6 0.00 0.33 0.33 90 1011.0
20260906015301 26 0 0.0 0.0 0.00 0.33 0.33 90 1010.9
20260906014800 26 0 0.0 0.0 0.00 0.33 0.33 90 1010.7
20260906013801 26 0 0.0 1.6 0.00 0.33 0.33 90 1010.6
20260906013301 26 0 0.0 1.6 0.00 0.33 0.33 90 1010.6
20260906012802 26 171 0.0 1.6 0.00 0.33 0.33 90 1010.4
20260906012306 26 0 0.0 1.6 0.00 0.33 0.33 90 1010.3
20260906011801 27 0 0.0 0.0 0.00 0.33 0.33 90 1010.4
20260906011300 27 0 0.0 0.0 0.00 0.33 0.33 89 1010.4
20260906005802 27 0 0.0 1.6 0.00 0.33 0.33 89 1010.3
20260906005306 27 0 0.0 1.6 0.00 0.33 0.33 89 1010.3
20260906004801 27 0 0.0 0.0 0.00 0.33 0.33 89 1010.2
20260906004302 27 0 0.0 0.0 0.00 0.33 0.33 89 1010.2
20260906003802 27 0 0.0 0.0 0.00 0.33 0.33 89 1010.1
20260906003303 27 0 0.0 0.0 0.00 0.33 0.33 88 1010.0
20260906002802 27 0 0.0 0.0 0.00 0.33 0.33 88 1009.9
20260906002305 27 0 0.0 0.0 0.00 0.33 0.33 88 1009.9
20260906001806 27 0 0.0 0.0 0.00 0.33 0.33 88 1009.7
20260906000303 28 0 0.0 0.0 0.00 0.33 0.33 87 1009.6
20260905235802 28 0 0.0 0.0 0.00 0.33 0.33 86 1009.5
20260905235306 28 0 0.0 0.0 0.00 0.33 0.33 86 1009.4
20260905234802 28 0 0.0 0.0 0.00 0.33 0.33 85 1009.5
20260905234301 28 0 0.0 0.0 0.00 0.33 0.33 85 1009.5
20260905233800 28 0 0.0 0.0 0.00 0.33 0.33 85 1009.6
20260905232801 29 0 0.0 1.6 0.00 0.33 0.33 84 1009.6
20260905232300 30 0 0.0 0.0 0.00 0.33 0.33 83 1009.5
20260905231801 30 0 0.0 1.6 0.00 0.33 0.33 82 1009.4
20260905230801 31 0 0.0 3.2 0.00 0.33 0.33 80 1009.3
20260905230302 31 0 0.0 1.6 0.00 0.33 0.33 79 1009.5
20260905225801 31 0 0.0 1.6 0.00 0.33 0.33 79 1009.7
20260905225301 31 0 0.0 3.2 0.00 0.33 0.33 79 1009.8
20260905224300 31 176 0.0 3.2 0.00 0.33 0.33 78 1010.1
20260905223802 31 0 0.0 4.8 0.00 0.33 0.33 78 1010.1
20260905223301 31 0 1.6 4.8 0.00 0.33 0.33 77 1010.1
20260905222301 32 204 0.0 3.2 0.00 0.33 0.33 71 1010.1
20260905221801 32 0 0.0 3.2 0.00 0.33 0.33 71 1010.2
20260905221301 32 0 0.0 3.2 0.00 0.33 0.33 73 1010.2
20260905220801 32 0 1.6 4.8 0.00 0.33 0.33 74 1010.1
20260905220301 33 118 0.0 4.8 0.00 0.33 0.33 70 1010.1
20260905215801 33 0 0.0 3.2 0.00 0.33 0.33 68 1010.2
20260905214800 33 0 0.0 8.0 0.00 0.33 0.33 67 1010.2
20260905213800 32 357 0.0 6.4 0.00 0.33 0.33 69 1010.3
20260905213301 31 0 0.0 6.4 0.00 0.33 0.33 73 1010.2
20260905212305 31 199 1.6 6.4 0.00 0.33 0.33 75 1010.3
20260905211802 31 0 1.6 11.3 0.00 0.33 0.33 76 1010.3
20260905211302 31 214 3.2 11.3 0.00 0.33 0.33 75 1010.3
20260905205801 30 241 1.6 8.0 0.00 0.33 0.33 79 1010.2
20260905205302 30 219 4.8 9.7 0.00 0.33 0.33 84 1010.2
20260905204804 29 126 6.4 9.7 0.00 0.33 0.33 84 1010.2
20260905204301 29 154 6.4 8.0 0.00 0.33 0.33 85 1010.3
20260905203800 29 93 3.2 8.0 0.00 0.33 0.33 86 1010.2
20260905203301 29 132 3.2 6.4 0.00 0.33 0.33 85 1010.3
20260905202801 28 53 3.2 6.4 0.00 0.36 0.33 87 1010.3
20260905202301 28 92 1.6 4.8 0.00 0.36 0.33 87 1010.3
20260905201301 28 177 1.6 4.8 0.00 0.36 0.33 88 1010.5
20260905200305 28 76 0.0 4.8 0.00 0.36 0.33 88 1010.5
20260905195301 28 0 0.0 3.2 0.00 0.36 0.33 88 1010.6
20260905194801 28 0 0.0 3.2 0.00 0.36 0.33 89 1010.8
20260905194302 28 0 1.6 3.2 0.00 0.38 0.33 88 1010.8
20260905193802 28 153 1.6 3.2 0.00 0.41 0.33 88 1010.9
20260905193301 28 143 1.6 4.8 0.00 0.43 0.33 87 1010.7
20260905192802 28 150 0.0 4.8 0.00 0.76 0.33 85 1010.6
20260905192301 28 0 0.0 3.2 0.00 1.37 0.33 87 1010.7
20260905191802 27 0 0.0 3.2 0.00 2.08 0.33 88 1010.8
20260905191301 27 0 0.0 1.6 0.05 2.57 0.33 90 1011.1
20260905190802 27 0 0.0 1.6 0.15 2.90 0.33 90 1011.3
20260905190302 27 0 0.0 1.6 0.23 3.02 0.33 91 1011.3
20260905185802 27 0 0.0 0.0 0.28 3.02 0.33 91 1011.3
20260905185305 26 0 0.0 3.2 0.28 3.02 0.33 91 1011.1
20260905184802 26 0 0.0 3.2 0.28 3.02 0.33 91 1011.1
20260905184300 26 0 0.0 1.6 0.28 3.02 0.33 92 1011.1
20260905183800 26 0 0.0 3.2 0.28 3.02 0.33 92 1011.3
20260905183301 26 0 0.0 4.8 0.28 3.02 0.33 91 1011.5
20260905182801 26 164 1.6 4.8 0.28 3.02 0.33 91 1011.5
20260905182306 26 174 0.0 3.2 0.28 3.02 0.33 90 1011.5
20260905180800 27 150 3.2 22.5 0.13 2.87 0.18 88 1011.7
20260905180302 27 299 9.7 22.5 0.05 2.79 0.10 85 1011.8
20260905175801 29 301 12.9 24.1 0.00 2.77 0.05 77 1011.6
20260905175301 30 319 8.0 24.1 0.00 2.77 0.05 75 1011.6
20260905174801 31 275 6.4 14.5 0.00 2.77 0.05 73 1011.5
20260905174300 31 308 6.4 14.5 0.00 2.79 0.05 71 1011.6
20260905173801 31 316 6.4 12.9 0.00 2.79 0.05 73 1011.7
20260905173301 31 327 6.4 12.9 0.00 2.79 0.05 72 1011.6
20260905172801 31 17 6.4 12.9 0.00 2.79 0.05 72 1011.7
20260905172301 30 302 6.4 16.1 0.00 2.79 0.05 76 1011.8
20260905171801 30 337 6.4 16.1 0.00 2.79 0.05 77 1011.9
20260905171300 31 345 4.8 12.9 0.00 2.79 0.05 76 1012.0
20260905170301 31 17 4.8 11.3 0.00 2.79 0.05 74 1012.1
20260905165801 30 277 3.2 9.7 0.00 2.79 0.05 78 1012.2
20260905165300 30 313 4.8 11.3 0.00 2.79 0.05 79 1012.4
20260905164800 30 290 4.8 11.3 0.00 2.79 0.05 78 1012.4
20260905163800 30 327 3.2 11.3 0.05 2.79 0.05 75 1012.5
20260905163300 30 14 6.4 16.1 0.05 2.79 0.05 78 1012.5
20260905162801 30 33 3.2 16.1 0.05 2.79 0.05 77 1012.6
20260905162301 30 318 1.6 11.3 0.05 2.79 0.05 80 1012.7
20260905161801 29 0 3.2 9.7 0.05 2.79 0.05 82 1012.8
20260905161301 30 242 3.2 9.7 0.05 2.79 0.05 80 1012.9
20260905160800 30 318 3.2 9.7 0.05 2.79 0.05 78 1012.9
20260905160301 28 320 4.8 9.7 0.05 2.79 0.05 85 1013.0
20260905155801 28 309 4.8 9.7 0.05 2.79 0.05 85 1013.0
20260905155301 28 286 3.2 9.7 0.05 2.79 0.05 84 1013.1
20260905154800 28 243 4.8 14.5 0.05 2.79 0.05 84 1013.2
20260905154301 29 295 6.4 14.5 0.00 2.77 0.00 82 1013.2
20260905153801 30 259 4.8 12.9 0.00 2.74 0.00 79 1013.1
20260905152801 28 303 3.2 9.7 0.00 2.74 0.00 83 1013.3
20260905152301 28 302 3.2 12.9 0.00 2.74 0.00 84 1013.4
20260905150801 28 330 3.2 9.7 0.00 2.74 0.00 83 1013.3
20260905145801 28 203 4.8 12.9 0.00 2.74 0.00 87 1013.4
20260905145301 28 313 1.6 12.9 0.00 2.74 0.00 86 1013.5
20260905144801 28 0 1.6 6.4 0.00 2.74 0.00 86 1013.5
20260905144301 28 306 0.0 6.4 0.00 2.74 0.00 87 1013.5
20260905143800 28 0 1.6 8.0 0.00 2.74 0.00 86 1013.5
20260905142801 27 316 1.6 4.8 0.00 2.74 0.00 87 1013.5
20260905142301 27 177 1.6 9.7 0.00 2.74 0.00 87 1013.5
20260905141800 27 284 3.2 9.7 0.00 2.74 0.00 88 1013.5
20260905141302 27 311 1.6 9.7 0.00 2.74 0.00 87 1013.4
20260905140801 27 293 1.6 8.0 0.00 2.74 0.00 88 1013.3
20260905140301 27 0 3.2 11.3 0.00 2.74 0.00 88 1013.4
20260905135801 27 182 3.2 11.3 0.00 2.74 0.00 88 1013.3
20260905135306 27 324 3.2 9.7 0.00 2.74 0.00 89 1013.3
20260905134801 27 276 1.6 9.7 0.00 2.74 0.00 92 1013.3